Date,TemperatureHighF,TemperatureAvgF,TemperatureLowF,DewpointHighF,DewpointAvgF,DewpointLowF,HumidityHigh,HumidityAvg,HumidityLow,PressureMaxIn,PressureMinIn,WindSpeedMaxMPH,WindSpeedAvgMPH,GustSpeedMaxMPH,PrecipitationSumIn
2013-1-4,28,20,12,17,13,8,85,74,63,30.18,30.12,7,2,0,0.00
2013-1-5,23,15,9,14,10,5,87,79,66,30.13,29.90,10,2,0,0.00
2013-1-6,22,14,7,15,9,2,86,79,69,30.29,30.03,10,3,0,0.00
2013-1-7,36,28,20,26,22,16,85,77,68,30.01,29.91,17,3,0,0.01
2013-1-8,34,26,14,28,21,11,88,82,74,30.00,29.77,12,3,0,0.00
2013-1-9,34,30,24,27,22,19,86,74,63,30.37,29.93,19,5,0,0.00
2013-1-10,40,35,28,32,26,22,91,72,53,30.30,29.73,14,5,0,0.21
2013-1-11,40,36,34,38,34,32,93,92,91,29.72,29.36,13,4,0,0.02
2013-1-12,36,14,4,34,7,-3,92,76,66,30.15,29.38,19,7,0,0.00
2013-1-13,9,4,1,2,-2,-5,80,75,70,30.32,30.13,10,4,0,0.00
2013-1-14,12,7,3,5,1,-2,85,76,66,30.49,30.32,9,2,0,0.00
2013-1-15,30,19,8,19,12,4,85,74,59,30.33,29.85,10,3,0,0.00
2013-1-16,36,26,10,32,19,-1,90,75,52,30.27,29.68,14,6,0,0.00
2013-1-17,19,12,4,11,3,-4,77,67,56,30.46,30.28,9,2,0,0.00
2013-1-18,39,29,17,30,24,11,87,79,69,30.32,29.75,14,4,0,0.00
2013-1-19,39,23,2,31,17,-5,90,78,61,30.30,29.70,27,8,0,0.00
2013-1-20,8,2,-3,2,-5,-11,78,69,61,30.50,30.31,19,7,0,0.00
2013-1-21,-3,-7,-11,-11,-15,-19,76,67,62,30.46,30.37,15,7,0,0.00
2013-1-22,6,-4,-11,-1,-11,-18,73,69,63,30.51,30.32,5,2,0,0.00
2013-1-23,15,7,-4,8,-2,-15,81,67,53,30.69,30.22,20,6,0,0.00
2013-1-24,14,3,-6,3,-8,-16,69,60,54,30.76,30.22,15,5,0,0.00
2013-1-25,18,12,3,13,4,-4,78,69,58,30.38,30.00,20,7,0,0.00
2013-1-26,24,12,-1,13,3,-6,79,67,55,30.42,30.13,12,4,0,0.00
2013-1-27,33,30,23,30,23,13,91,76,62,30.13,29.80,13,4,0,0.02
2013-1-28,35,32,31,33,30,28,92,91,89,29.90,29.63,11,2,0,0.13
2013-1-29,36,32,28,31,28,22,92,85,77,29.77,29.54,12,5,0,0.04
2013-1-30,27,17,8,21,11,2,80,75,69,29.83,29.69,17,10,0,0.00
2013-1-31,7,0,-8,2,-7,-15,78,70,65,30.38,29.84,26,11,0,0.00
2013-2-1,6,-4,-13,1,-11,-19,81,70,61,30.42,30.13,7,2,0,0.00
2013-2-2,11,6,2,6,0,-4,82,75,60,30.26,30.04,9,2,0,0.00
2013-2-3,13,10,4,7,4,-2,83,76,66,30.15,30.02,12,4,0,0.00
2013-2-4,18,10,3,11,2,-3,85,71,54,30.13,29.79,7,2,0,0.00
2013-2-5,29,21,4,25,16,0,90,80,64,30.13,29.70,15,4,0,0.00
2013-2-6,27,16,2,20,11,-2,84,81,74,30.15,29.96,11,3,0,0.00
2013-2-7,28,25,20,23,21,17,89,83,75,30.29,30.02,14,6,0,0.00
2013-2-8,26,23,14,21,17,10,84,79,75,30.40,30.22,14,4,0,0.00
2013-2-9,32,29,26,28,25,21,89,85,82,30.23,29.93,18,6,0,0.00
2013-2-10,33,31,29,31,28,25,92,90,85,29.93,29.29,16,6,0,0.00
2013-2-11,29,24,13,27,18,8,92,81,73,30.08,29.37,21,10,0,0.00
2013-2-12,34,23,12,24,17,8,87,78,66,30.09,29.84,10,2,0,0.01
2013-2-13,37,28,16,30,23,13,91,82,70,29.83,29.57,5,1,0,0.06
2013-2-14,33,23,10,30,15,1,91,71,50,30.23,29.59,11,6,0,0.06
2013-2-15,16,9,3,5,2,-2,79,71,60,30.39,30.24,12,4,0,0.00
2013-2-16,17,8,1,8,2,-3,84,76,64,30.33,30.15,5,1,0,0.00
2013-2-17,32,22,8,23,15,3,82,75,67,30.16,29.62,21,7,0,0.00
2013-2-18,33,22,6,30,16,1,87,78,71,29.88,29.52,22,9,0,0.00
2013-2-19,6,2,-4,1,-6,-11,85,70,60,30.46,29.89,21,9,0,0.00
2013-2-20,14,3,-9,2,-5,-15,77,68,58,30.55,30.46,9,2,0,0.00
2013-2-21,22,14,1,13,6,-5,80,69,59,30.50,30.11,14,3,0,0.00
2013-2-22,26,23,20,22,18,13,87,83,71,30.10,29.90,10,4,0,0.05
2013-2-23,27,20,9,21,15,5,86,82,72,30.01,29.89,7,2,0,0.01
2013-2-24,32,16,1,21,10,-3,93,77,62,30.15,30.01,4,0,0,0.00
2013-2-25,34,25,16,24,19,13,87,77,65,30.15,30.06,5,1,0,0.00
2013-2-26,34,24,13,26,19,9,88,80,72,30.09,29.91,13,4,0,0.00
2013-2-27,39,31,27,26,24,21,82,74,57,30.06,29.90,16,7,0,0.00
2013-2-28,30,28,23,22,20,16,80,72,67,30.25,30.06,11,5,0,0.00
2013-3-1,28,24,16,18,15,10,77,70,62,30.40,30.24,11,4,0,0.00
2013-3-2,27,18,5,15,10,1,85,72,57,30.41,30.20,7,1,0,0.00
2013-3-3,33,26,20,15,12,10,69,56,40,30.19,29.98,12,5,0,0.00
2013-3-4,28,25,23,21,18,14,93,75,55,30.05,29.94,19,7,0,0.00
2013-3-5,30,26,22,25,22,17,89,85,78,30.34,29.99,11,4,0,0.09
2013-3-6,26,22,8,19,16,4,84,78,71,30.45,30.34,10,3,0,0.04
2013-3-7,31,18,2,20,11,-2,87,74,62,30.43,30.31,15,3,0,0.01
2013-3-8,37,28,18,29,22,14,87,78,68,30.34,30.09,11,4,0,0.04
2013-3-9,38,36,33,35,33,28,92,90,77,30.09,29.69,11,4,0,0.50
2013-3-10,34,32,29,32,27,23,92,81,76,29.97,29.80,18,10,0,0.01
2013-3-11,30,27,20,23,20,14,81,77,67,29.90,29.78,12,6,0,0.00
2013-3-12,28,24,20,20,16,11,80,72,57,30.25,29.86,18,7,0,0.00
2013-3-13,28,19,10,19,13,5,83,76,65,30.43,30.25,9,3,0,0.00
2013-3-14,37,28,24,26,22,18,82,77,64,30.28,30.04,7,2,0,0.04
2013-3-15,34,31,25,30,27,21,89,86,81,30.03,29.84,11,4,0,0.13
2013-3-16,24,20,12,21,13,3,87,74,61,30.30,29.92,13,6,0,0.00
2013-3-17,28,18,6,21,8,-1,76,65,56,30.32,29.87,17,6,0,0.00
2013-3-18,30,21,11,28,16,5,91,81,74,29.89,29.62,20,10,0,0.00
2013-3-19,21,12,6,8,2,-1,76,64,48,30.28,29.89,21,11,0,0.00
2013-3-20,20,12,6,6,1,-3,69,61,54,30.30,30.19,17,9,0,0.00
2013-3-21,24,16,2,10,5,-4,78,63,52,30.20,30.10,7,2,0,0.00
2013-3-22,33,20,4,17,10,0,83,66,47,30.15,30.09,6,1,0,0.00
2013-3-23,34,22,13,21,2,-100,84,61,50,30.19,30.10,7,-110,0,0.00
2013-3-24,32,20,26,25,-20,-100,88,48,63,30.12,30.00,13,-346,0,0.02
2013-3-25,36,30,24,24,18,16,82,63,50,30.27,30.07,11,6,0,0.00
2013-3-26,34,26,18,23,19,13,85,73,61,30.34,30.26,9,3,0,0.00
2013-3-27,40,28,14,27,18,10,90,68,42,30.38,30.34,6,1,0,0.00
2013-3-28,42,31,17,28,22,14,87,70,53,30.37,30.29,9,2,0,0.00
2013-3-29,48,40,32,37,32,26,80,74,63,30.29,30.05,11,4,0,0.00
2013-3-30,48,42,34,42,36,30,89,81,72,30.04,29.86,12,5,0,0.13
2013-3-31,38,33,23,31,24,13,90,72,51,30.13,29.82,19,9,0,0.00
2013-4-1,32,25,17,19,15,11,75,66,52,30.32,30.14,12,7,0,0.00
2013-4-2,35,27,19,19,17,14,82,65,42,30.39,30.29,14,4,0,0.00
2013-4-3,46,34,18,34,24,15,85,68,51,30.42,30.04,15,5,0,0.00
2013-4-4,48,41,32,33,29,24,83,64,45,30.19,30.00,14,6,0,0.00
2013-4-5,40,33,26,31,25,19,89,73,47,30.25,29.86,18,6,0,0.04
2013-4-6,52,42,36,44,35,30,89,77,64,29.86,29.50,16,7,0,0.23
2013-4-7,47,40,35,39,34,30,89,80,69,29.95,29.75,10,3,0,0.17
2013-4-8,44,42,40,41,39,36,93,89,84,30.05,29.66,11,4,0,0.65
2013-4-9,42,38,32,35,31,28,88,77,60,30.19,29.98,18,9,0,0.28
2013-4-10,38,34,31,29,27,23,90,75,61,30.21,29.90,18,6,0,0.16
2013-4-11,35,33,30,31,29,26,90,86,69,29.91,29.70,18,7,0,0.39
2013-4-12,35,31,27,28,27,24,90,85,73,29.87,29.70,11,5,0,0.19
2013-4-13,36,32,28,27,26,24,90,77,63,29.97,29.85,10,3,0,0.16
2013-4-14,37,33,30,34,28,24,91,83,71,29.95,29.48,25,10,0,0.32
2013-4-15,40,36,32,32,29,25,88,76,68,29.99,29.52,17,6,0,0.00
2013-4-16,41,36,32,29,27,26,82,71,59,30.33,29.98,16,5,0,0.00
2013-4-17,40,37,34,31,28,27,77,72,69,30.33,30.06,11,4,0,0.00
2013-4-18,34,32,31,31,30,29,92,90,87,29.95,29.56,19,6,0,0.13
2013-4-19,36,31,29,30,26,19,92,82,57,30.03,29.54,17,6,0,0.27
2013-4-20,39,31,18,21,17,13,84,60,35,30.31,30.03,9,2,0,0.02
2013-4-21,49,40,32,43,35,20,92,83,56,30.32,30.00,18,6,0,0.22
2013-4-22,41,36,32,35,31,29,93,82,64,30.22,30.14,13,6,0,0.04
2013-4-23,39,33,26,29,24,22,91,72,50,30.20,30.09,14,6,0,0.12
2013-4-24,50,37,27,34,29,23,89,76,48,30.10,29.93,18,4,0,0.05
2013-4-25,50,40,31,34,30,26,88,70,49,30.22,30.00,11,5,0,0.00
2013-4-26,69,56,44,49,40,32,77,56,35,30.11,29.93,13,5,0,0.00
2013-4-27,73,57,36,48,38,31,85,53,27,30.11,29.84,7,2,0,0.00
2013-4-28,80,63,50,51,48,44,89,60,34,29.84,29.59,15,4,0,0.10
2013-4-29,72,60,46,56,46,39,88,62,35,29.79,29.47,10,3,0,0.00
2013-4-30,67,63,54,59,46,29,82,56,26,29.95,29.34,15,6,0,0.00
2013-5-1,54,41,33,37,32,29,90,72,50,30.50,29.95,14,4,0,0.30
2013-5-2,47,40,35,30,27,24,73,61,46,30.56,30.44,16,7,0,0.00
2013-5-3,38,35,32,33,28,23,86,76,63,30.43,30.17,16,8,0,0.03
2013-5-4,45,38,33,40,35,29,90,86,82,30.19,30.12,13,7,0,0.05
2013-5-5,62,48,38,49,42,35,89,78,62,30.18,30.07,7,3,0,0.00
2013-5-6,73,59,45,51,47,42,90,66,41,30.10,29.98,7,1,0,0.00
2013-5-7,77,64,49,54,49,45,89,61,34,30.03,29.91,6,1,0,0.00
2013-5-8,74,64,57,56,52,48,90,67,40,29.98,29.91,11,2,0,0.18
2013-5-9,60,54,44,55,47,31,89,79,56,30.10,29.91,15,8,0,0.02
2013-5-10,66,51,36,43,30,25,73,47,22,30.12,29.86,10,4,0,0.00
2013-5-11,56,47,41,41,27,21,69,48,33,30.18,29.86,23,10,0,0.01
2013-5-12,58,46,31,28,23,18,73,43,21,30.24,30.08,12,4,0,0.00
2013-5-13,74,56,38,49,36,24,74,48,34,30.10,29.60,18,4,0,0.00
2013-5-14,96,74,51,56,46,32,76,42,16,29.64,29.39,23,6,0,0.00
2013-5-15,79,68,59,50,47,44,62,48,32,29.80,29.64,14,4,0,0.00
2013-5-16,80,69,52,51,45,35,78,46,28,29.87,29.80,14,4,0,0.01
2013-5-17,64,58,55,55,51,40,92,80,42,29.95,29.83,17,6,0,0.39
2013-5-18,79,66,56,67,60,54,93,82,61,29.95,29.72,15,5,0,1.87
2013-5-19,78,68,64,68,64,61,93,85,68,29.73,29.50,11,3,0,1.30
2013-5-20,70,65,60,62,59,56,93,82,66,29.52,29.45,18,4,0,0.21
2013-5-21,60,56,47,57,53,45,92,91,88,29.70,29.46,11,4,0,0.12
2013-5-22,53,48,44,48,45,42,93,89,69,29.97,29.68,14,7,0,0.09
2013-5-23,63,53,44,42,37,31,86,58,32,30.29,30.00,13,6,0,0.02
2013-5-24,56,55,54,51,50,50,88,85,84,30.22,30.18,5,3,0,0.25
2013-5-25,59,55,53,50,48,45,88,78,69,30.22,30.17,17,7,0,0.00
2013-5-26,57,54,52,49,44,41,77,69,60,30.18,29.99,19,8,0,0.00
2013-5-27,61,57,53,54,51,48,91,83,73,30.01,29.80,14,6,0,0.00
2013-5-28,61,56,53,56,53,50,93,89,84,29.79,29.69,9,2,0,0.04
2013-5-29,73,65,53,68,60,51,93,86,71,29.78,29.57,14,4,0,0.13
2013-5-30,73,68,64,65,63,61,92,84,70,29.61,29.45,15,6,0,0.04
2013-5-31,75,67,62,61,56,53,90,70,52,29.51,29.45,16,4,0,0.04
2013-6-1,71,59,51,60,52,43,90,78,61,29.92,29.49,14,4,0,0.09
2013-6-2,64,55,46,47,43,40,85,66,45,30.08,29.93,10,4,0,0.00
2013-6-3,67,59,45,50,45,41,91,62,42,30.04,29.91,9,2,0,0.00
2013-6-4,63,60,57,53,50,46,86,71,55,30.03,29.93,17,6,0,0.01
2013-6-5,65,58,54,57,54,51,91,86,75,29.98,29.91,10,3,0,0.05
2013-6-6,57,53,50,52,50,48,91,87,81,30.02,29.95,10,4,0,0.00
2013-6-7,63,57,52,54,51,49,90,81,66,30.03,29.89,5,1,0,0.00
2013-6-8,69,62,53,57,53,50,91,75,58,29.89,29.83,9,2,0,0.00
2013-6-9,65,60,57,60,56,54,92,87,76,29.84,29.73,16,6,0,0.53
2013-6-10,72,64,60,63,60,57,93,86,69,29.82,29.76,7,1,0,0.00
2013-6-11,75,66,57,67,62,54,93,87,75,29.86,29.76,5,1,0,0.01
2013-6-12,74,65,58,65,59,53,93,81,66,29.91,29.74,10,4,0,0.82
2013-6-13,76,68,59,60,56,51,87,65,50,30.06,29.90,7,3,0,0.00
2013-6-14,77,69,56,63,58,51,88,70,60,30.04,29.82,14,5,0,0.00
2013-6-15,75,69,61,68,64,59,93,85,70,29.87,29.79,8,2,0,0.76
2013-6-16,84,69,57,64,56,49,93,68,32,29.89,29.80,22,2,0,0.12
2013-6-17,79,69,58,62,58,54,89,67,46,29.96,29.82,12,3,0,0.00
2013-6-18,75,65,54,61,55,47,79,71,55,30.05,29.96,9,2,0,0.00
2013-6-19,82,72,59,65,60,54,85,67,47,30.01,29.87,9,3,0,0.00
2013-6-20,87,79,70,70,65,59,76,63,49,29.93,29.78,10,3,0,0.00
2013-6-21,80,72,64,69,65,61,91,79,60,29.93,29.68,22,5,0,2.27
2013-6-22,78,70,64,70,66,62,92,85,72,29.93,29.77,11,2,0,0.92
2013-6-23,81,73,65,70,67,62,93,82,64,29.84,29.61,17,4,0,1.10
2013-6-24,79,71,62,71,66,60,93,83,67,29.86,29.75,11,2,0,0.00
2013-6-25,83,75,65,74,68,62,91,81,68,29.77,29.64,11,3,0,0.00
2013-6-26,86,77,70,76,70,65,93,79,57,29.76,29.59,11,2,0,0.00
2013-6-27,84,76,67,68,62,56,91,67,39,29.78,29.73,19,4,0,0.00
2013-6-28,77,70,64,64,60,57,88,71,56,29.77,29.72,21,6,0,0.03
2013-6-29,77,68,63,62,58,51,90,72,54,29.95,29.71,14,5,0,0.01
2013-6-30,80,68,55,58,54,51,88,65,39,30.08,29.95,8,3,0,0.00
2013-7-1,82,71,58,63,57,54,92,64,39,30.15,30.08,9,2,0,0.00
2013-7-2,81,70,59,58,55,52,85,61,39,30.12,30.00,7,2,0,0.00
2013-7-3,81,70,57,63,57,53,93,67,40,30.02,29.89,7,1,0,0.00
2013-7-4,86,75,62,66,59,56,83,60,37,29.91,29.79,5,2,0,0.00
2013-7-5,85,77,68,69,62,56,73,60,50,29.83,29.73,11,3,0,0.00
2013-7-6,86,78,72,73,65,61,72,66,56,29.81,29.72,9,2,0,0.00
2013-7-7,87,79,70,75,69,66,92,73,59,29.82,29.75,5,1,0,0.02
2013-7-8,84,73,65,74,68,63,93,83,62,29.96,29.82,6,2,0,0.01
2013-7-9,83,76,68,73,69,64,92,80,70,29.89,29.67,15,4,0,0.68
2013-7-10,78,70,58,64,59,55,90,70,48,30.01,29.88,11,4,0,0.00
2013-7-11,82,72,58,63,59,56,93,66,45,30.06,29.91,11,2,0,0.00
2013-7-12,86,76,68,67,62,57,70,60,48,29.95,29.82,16,6,0,0.00
2013-7-13,76,71,66,70,65,59,92,80,61,30.03,29.83,13,5,0,2.16
2013-7-14,82,74,68,70,66,61,88,76,61,30.12,29.99,9,3,0,0.00
2013-7-15,84,76,66,72,68,63,90,76,59,30.18,30.09,11,1,0,0.00
2013-7-16,88,81,73,77,72,69,89,77,60,30.15,30.10,7,2,0,0.00
2013-7-17,90,81,72,76,72,68,90,76,60,30.18,30.04,6,1,0,0.00
2013-7-18,90,83,74,76,72,70,86,72,57,30.03,29.69,15,3,0,0.00
2013-7-19,82,77,69,71,66,60,85,68,52,29.86,29.66,10,4,0,0.00
2013-7-20,78,70,62,66,61,58,90,76,59,29.91,29.83,7,2,0,0.03
2013-7-21,79,70,59,69,62,53,90,77,65,29.90,29.73,11,3,0,0.27
2013-7-22,84,73,64,74,65,57,90,77,57,29.82,29.63,15,4,0,0.00
2013-7-23,74,66,59,57,55,53,86,70,50,29.98,29.81,10,3,0,0.00
2013-7-24,77,66,57,63,57,53,89,75,55,30.05,29.93,6,1,0,0.00
2013-7-25,79,71,60,69,62,57,91,75,60,29.93,29.86,10,1,0,0.04
2013-7-26,69,62,54,63,54,47,87,74,61,30.07,29.86,14,6,0,0.01
2013-7-27,64,57,50,50,48,45,88,71,53,30.07,29.92,14,4,0,0.00
2013-7-28,72,60,48,56,50,44,87,71,52,30.04,29.95,10,3,0,0.00
2013-7-29,75,64,51,60,55,48,93,75,53,30.09,30.03,6,1,0,0.00
2013-7-30,70,66,62,65,62,58,91,85,79,30.06,30.01,5,1,0,0.10
2013-7-31,78,67,60,68,60,53,93,80,55,30.04,29.95,11,2,0,0.00
2013-8-1,79,67,54,66,57,50,88,72,50,30.01,29.82,4,1,0,0.00
2013-8-2,74,66,58,60,55,52,87,71,47,30.01,29.81,7,2,0,0.00
2013-8-3,76,64,52,59,53,50,92,70,43,30.17,30.02,9,2,0,0.00
2013-8-4,72,62,52,61,54,49,90,77,57,30.20,29.96,5,1,0,0.00
2013-8-5,80,70,62,69,64,56,93,81,64,29.97,29.74,5,2,0,0.98
2013-8-6,82,67,55,70,61,53,93,82,63,29.80,29.63,11,2,0,0.03
2013-8-7,73,64,57,58,56,52,92,76,48,30.00,29.75,11,3,0,0.01
2013-8-8,72,62,54,62,57,51,93,85,64,30.03,29.95,4,0,0,0.02
2013-8-9,74,65,56,61,56,53,93,73,51,30.09,29.97,12,3,0,0.01
2013-8-10,74,66,58,61,56,53,88,73,53,30.15,30.04,5,1,0,0.00
2013-8-11,78,68,63,67,62,58,91,80,65,30.05,29.95,5,1,0,0.00
2013-8-12,77,68,60,61,58,55,92,72,49,30.03,29.96,10,3,0,0.00
2013-8-13,73,64,54,57,52,48,91,69,44,30.17,30.03,6,2,0,0.00
2013-8-14,74,61,53,55,52,49,89,74,49,30.15,30.06,2,0,0,0.00
2013-8-15,76,64,53,63,56,49,92,78,56,30.10,30.04,4,0,0,0.00
2013-8-16,76,66,56,63,58,53,92,75,51,30.16,30.09,8,1,0,0.00
2013-8-17,79,67,55,62,57,52,91,72,52,30.16,30.06,9,1,0,0.00
2013-8-18,80,70,59,64,58,54,85,69,51,30.09,29.95,7,2,0,0.00
2013-8-19,84,74,65,72,65,58,83,76,65,29.97,29.83,9,2,0,0.00
2013-8-20,85,77,69,75,70,64,87,79,68,29.85,29.79,11,2,0,0.00
2013-8-21,84,77,70,77,71,61,91,82,60,29.94,29.77,5,1,0,0.00
2013-8-22,82,73,62,61,55,50,78,55,36,30.08,29.95,9,3,0,0.00
2013-8-23,83,72,60,69,61,51,84,70,57,30.10,29.98,11,3,0,0.00
2013-8-24,87,78,70,74,70,65,86,77,62,30.00,29.86,18,6,0,0.00
2013-8-25,91,83,75,77,73,70,84,74,62,29.93,29.85,13,3,0,0.00
2013-8-26,92,83,75,79,75,71,90,77,63,29.91,29.76,11,2,0,0.00
2013-8-27,90,82,75,79,75,71,89,80,68,29.85,29.72,6,2,0,0.00
2013-8-28,87,78,69,76,71,67,93,82,64,29.95,29.85,9,1,0,0.00
2013-8-29,92,81,75,77,72,68,92,77,56,29.93,29.78,6,1,0,0.00
2013-8-30,81,74,67,71,67,63,90,78,63,29.89,29.75,13,3,0,0.00
2013-8-31,85,72,63,71,65,60,93,80,60,29.85,29.68,13,1,0,0.10
2013-9-1,72,67,60,64,60,53,90,78,66,29.96,29.69,11,4,0,0.01
2013-9-2,64,57,50,54,51,47,91,81,68,30.08,29.96,6,2,0,0.00
2013-9-3,76,61,47,62,54,44,93,80,58,30.08,29.97,6,1,0,0.00
2013-9-4,84,71,60,69,63,56,92,76,56,30.10,29.97,6,1,0,0.00
2013-9-5,82,72,63,69,62,55,85,71,57,30.17,30.04,10,3,0,0.00
2013-9-6,89,76,69,70,68,66,92,77,50,30.04,29.80,12,2,0,0.02
2013-9-7,90,79,68,72,68,63,93,72,49,29.94,29.79,12,3,0,0.00
2013-9-8,72,71,68,65,63,60,83,76,71,29.96,29.83,10,4,0,0.00
2013-9-9,82,71,68,72,67,65,92,85,69,29.83,29.64,11,3,0,0.00
2013-9-10,69,67,65,61,61,60,83,79,76,29.95,29.92,1,0,0,0.00
2013-9-11,83,71,62,63,58,50,91,66,35,30.02,29.95,10,3,0,0.00
2013-9-12,66,62,59,50,50,50,72,65,57,30.08,30.02,4,3,0,0.00
2013-9-22,74,69,61,57,55,52,77,63,52,29.91,29.80,16,7,0,0.00
2013-9-23,73,63,55,55,52,49,79,68,51,29.90,29.81,18,6,0,0.00
2013-9-24,74,62,52,57,52,48,86,71,50,29.93,29.87,8,3,0,0.00
2013-9-25,73,62,49,56,52,46,92,72,51,29.94,29.82,13,3,0,0.00
2013-9-26,80,68,57,62,57,51,79,67,52,29.87,29.76,19,7,0,0.00
2013-9-27,84,73,66,65,62,60,83,69,50,29.86,29.72,18,7,0,0.02
2013-9-28,73,61,47,62,54,43,91,78,66,29.93,29.58,14,5,0,0.21
2013-9-29,76,60,47,51,46,41,85,62,34,29.95,29.74,12,3,0,0.01
2013-9-30,79,67,57,54,50,46,71,57,41,29.73,29.53,12,4,0,0.00
2013-10-1,74,64,48,54,45,35,75,53,26,29.97,29.53,15,4,0,0.00
2013-10-2,75,58,42,55,44,38,91,64,30,30.02,29.79,16,4,0,0.40
2013-10-3,58,57,54,56,54,52,93,92,89,29.91,29.80,10,3,0,0.12
2013-10-4,58,56,54,55,53,51,93,90,87,29.95,29.79,17,6,0,0.28
2013-10-5,59,53,40,57,48,37,93,84,64,29.82,29.73,12,3,0,0.03
2013-10-6,53,46,40,49,43,37,93,91,86,29.85,29.69,10,2,0,0.07
2013-10-7,66,52,40,48,42,37,92,74,40,29.96,29.83,7,1,0,0.00
2013-10-8,76,62,48,50,46,42,85,58,37,29.93,29.76,15,4,0,0.00
2013-10-9,75,64,56,55,50,48,75,61,45,29.99,29.86,13,3,0,0.00
2013-10-10,66,59,54,51,48,46,74,68,59,29.99,29.81,7,2,0,0.00
2013-10-11,72,65,57,60,54,50,86,70,56,29.81,29.56,24,8,0,0.15
2013-10-12,56,50,43,49,42,37,84,75,64,30.18,29.67,14,4,0,0.01
2013-10-13,59,46,35,42,36,32,88,70,40,30.43,30.19,4,1,0,0.00
2013-10-14,53,47,38,46,40,35,89,75,60,30.39,29.91,19,5,0,0.65
2013-10-15,53,49,45,51,47,43,92,91,89,29.90,29.64,19,5,0,0.75
2013-10-16,54,45,36,43,39,31,91,78,53,29.96,29.84,9,3,0,0.01
2013-10-17,56,46,38,44,40,35,90,79,57,29.88,29.77,11,3,0,0.16
2013-10-18,52,44,37,38,35,32,90,72,47,29.99,29.84,10,3,0,0.05
2013-10-19,46,39,31,39,34,27,88,83,72,29.83,29.69,11,2,0,0.03
2013-10-20,46,37,29,40,33,26,93,84,73,29.90,29.61,14,3,0,0.04
2013-10-21,40,34,26,27,24,22,82,66,54,29.99,29.90,13,4,0,0.00
2013-10-22,40,33,24,30,27,21,89,78,65,30.05,29.98,5,2,0,0.00
2013-10-23,37,34,29,30,25,21,87,72,56,30.13,30.02,11,2,0,0.00
2013-10-24,39,34,31,30,26,22,83,73,63,30.33,30.13,7,2,0,0.00
2013-10-25,57,43,26,42,34,23,88,71,55,30.33,29.78,14,3,0,0.00
2013-10-26,49,41,34,40,31,27,77,67,55,30.12,29.79,12,5,0,0.00
2013-10-27,57,42,32,36,31,26,88,65,45,30.13,29.80,15,4,0,0.00
2013-10-28,42,36,31,30,25,21,81,65,47,30.44,30.14,11,5,0,0.00
2013-10-29,41,37,31,36,30,24,88,75,70,30.42,30.09,7,3,0,0.05
2013-10-30,48,44,39,46,42,36,93,92,88,30.08,29.66,11,2,0,0.07
2013-10-31,48,42,39,46,39,36,93,91,86,29.64,29.41,8,3,0,0.03
2013-11-1,44,40,36,38,34,32,85,78,74,29.86,29.80,5,1,0,0.00
2013-11-2,48,38,32,36,32,28,88,79,58,30.10,29.86,6,2,0,0.00
2013-11-3,54,44,33,37,33,30,89,68,45,30.09,29.86,31,8,0,0.00
2013-11-4,48,46,38,43,39,33,89,77,65,30.03,29.79,10,4,0,0.11
2013-11-5,34,33,33,30,30,30,91,90,86,30.11,30.04,6,4,0,0.01
2013-11-6,35,31,27,30,27,22,91,86,74,30.19,30.04,8,4,0,0.26
2013-11-7,35,29,21,30,25,18,93,86,80,30.27,30.18,11,1,0,0.01
2013-11-8,45,36,24,39,28,21,90,76,55,30.21,29.60,16,5,0,0.00
2013-11-9,43,40,35,38,32,26,86,73,59,30.22,29.63,19,8,0,0.00
2013-11-10,42,37,32,31,29,26,80,74,64,30.35,30.11,10,3,0,0.00
2013-11-11,37,24,15,31,13,7,80,63,50,30.78,30.13,19,7,0,0.00
2013-11-12,29,20,10,16,10,5,83,68,48,30.84,30.47,13,3,0,0.00
2013-11-13,53,36,23,35,25,14,76,64,51,30.46,29.87,14,4,0,0.00
2013-11-14,55,40,34,41,33,30,87,76,58,29.86,29.74,9,2,0,0.00
2013-11-15,55,42,29,40,34,26,90,75,54,29.85,29.60,10,2,0,0.00
2013-11-16,47,44,39,45,41,34,93,88,73,29.60,29.21,11,3,0,0.08
2013-11-17,43,38,31,40,34,24,92,84,75,29.85,29.29,18,7,0,0.00
2013-11-18,35,27,22,25,13,-100,83,67,60,30.27,29.85,16,-64,0,0.00
2013-11-19,47,16,35,31,-52,-100,68,22,53,30.26,29.84,18,-623,0,0.00
2013-11-20,45,16,38,34,-51,-100,84,24,53,30.03,29.83,19,-624,0,0.00
2013-11-21,38,30,23,34,24,14,89,80,68,30.56,30.03,15,6,0,0.00
2013-11-22,35,22,11,16,10,3,82,62,35,30.69,30.48,16,5,0,0.00
2013-11-23,18,10,6,4,2,0,78,68,49,30.91,30.70,13,4,0,0.00
2013-11-24,33,20,5,17,10,0,79,64,49,30.77,30.00,14,4,0,0.00
2013-11-25,38,33,28,29,24,18,82,68,57,30.10,29.92,19,6,0,0.00
2013-11-26,30,29,28,21,20,19,69,69,68,30.13,30.10,12,9,0,0.00
2013-11-30,42,32,24,29,24,21,86,73,60,30.18,30.04,7,2,0,0.00
2013-12-1,33,26,17,26,21,14,88,81,72,30.22,29.93,4,1,0,0.00
2013-12-2,39,33,29,33,29,24,90,85,74,29.92,29.56,10,4,0,0.12
2013-12-3,35,34,32,33,32,30,92,91,90,29.78,29.57,7,2,0,0.03
2013-12-4,32,27,11,29,24,6,91,89,81,29.77,29.49,16,5,0,0.01
2013-12-5,11,4,-4,6,-2,-9,84,76,69,30.43,29.77,11,5,0,0.00
2013-12-6,3,-5,-12,-5,-11,-17,79,75,68,30.75,30.43,10,2,0,0.00
2013-12-7,1,-7,-14,-8,-13,-20,79,73,62,30.83,30.66,7,1,0,0.00
2013-12-8,12,6,-6,7,2,-11,85,81,79,30.65,30.09,13,3,0,0.00
2013-12-9,10,-1,-5,6,-6,-11,84,76,68,30.20,29.92,11,3,0,0.00
2013-12-10,14,7,1,10,1,-5,86,76,67,30.37,29.82,14,4,0,0.00
2013-12-11,3,-4,-10,-5,-11,-16,76,70,62,30.65,30.38,10,2,0,0.00
2013-12-12,19,11,2,11,5,-5,82,76,67,30.37,30.18,5,1,0,0.00
2013-12-13,15,13,10,9,7,6,83,76,71,30.33,30.15,13,6,0,0.00
2013-12-14,13,8,-1,8,3,-8,83,79,72,30.33,30.16,12,4,0,0.00
2013-12-15,3,1,-2,-5,-7,-9,73,68,61,30.24,30.18,7,3,0,0.00
2013-12-16,21,10,3,19,5,-5,89,78,68,30.18,29.95,7,2,0,0.00
2013-12-17,33,22,5,27,16,0,92,75,62,30.15,29.90,20,6,0,0.00
2013-12-18,36,23,3,27,17,-2,86,77,66,30.11,29.67,10,3,0,0.04
2013-12-19,27,17,15,21,11,7,84,77,70,30.10,29.83,15,7,0,0.00
2013-12-20,18,15,11,13,10,7,84,82,78,30.07,29.89,8,3,0,0.00
2013-12-21,21,18,15,14,12,11,82,80,75,30.04,29.90,11,3,0,0.00
2013-12-22,16,12,1,11,6,-4,83,80,76,30.32,29.99,11,5,0,0.00
2013-12-23,1,-4,-13,-4,-11,-19,78,73,69,30.62,30.32,10,4,0,0.00
2013-12-24,11,-2,-17,6,-9,-23,83,72,55,30.59,30.19,13,3,0,0.00
2013-12-25,28,17,10,24,12,6,88,81,66,30.20,30.09,15,4,0,0.00
2013-12-26,29,19,7,23,15,2,87,83,76,30.20,30.09,3,0,0,0.01
2013-12-27,40,28,10,31,23,6,90,82,68,30.19,29.92,10,2,0,0.03
2013-12-28,43,30,17,31,25,12,91,82,62,30.05,29.65,20,4,0,0.00
2013-12-29,16,-3,-17,11,-11,-23,81,66,54,30.41,30.06,18,6,0,0.00
2013-12-30,4,-6,-18,-2,-12,-24,81,76,73,30.40,30.25,7,1,0,0.00
2013-12-31,-1,-7,-12,-5,-13,-18,85,74,66,30.50,30.29,7,2,0,0.00
2014-1-1,1,-3,-8,-8,-11,-15,71,68,64,30.58,30.48,8,4,0,0.00
2014-1-2,1,-6,-15,-9,-15,-21,75,66,48,30.60,30.47,4,1,0,0.00